User: anonymous   Login
Location: Cimarron National Grasslands
(37.1250°N, 101.7500°W)
Time: 14:36:35
(UTC-06:00)
Language:

Ariane Rocket - Orbit

View from above orbital plane
View from above orbital plane
View from above satellite
View from above satellite

Ground track
Ground track

The orbit data is extracted from the following two-line orbital elements,

1 23561U 95021B   17057.96750104 +.00000035 +00000-0 +27105-4 0  9993
2 23561 098.7902 056.6321 0006210 218.4657 194.2288 14.37797167145195
Epoch (UTC): 26 February 2017 23:13:12
Eccentricity: 0.0006210
inclination: 98.7902°
perigee height: 761 km
apogee height: 770 km
right ascension of ascending node: 56.6321°
argument of perigee: 218.4657°
revolutions per day: 14.37797167
mean anomaly at epoch: 194.2288°
orbit number at epoch: 14519

The dashed part of the orbit path shows where the satellite is in the earth's shadow,  

DLR